Find Local Weather

World > North America > United States > Florida

Naples, Florida Regional Weather

Lat: 26.14N, Lon: 81.8W
Wx Zone: FLZ069
Feedback
Expires:201807200900;;758702
ASUS42 KTBW 200817
RWRFL 
FLORIDA REGIONAL WEATHER ROUNDUP
NATIONAL WEATHER SERVICE TAMPA BAY RUSKIN FL
400 AM EDT FRI JUL 20 2018

NOTE: "FAIR" INDICATES FEW OR NO CLOUDS BELOW 12,000 FEET WITH NO
SIGNIFICANT WEATHER AND/OR OBSTRUCTIONS TO VISIBILITY.


FLZ066-069-070-075>078-162-262-165-265-200900-
SOUTHWEST FLORIDA AND KEYS
  
CITY           SKY/WX    TMP DP  RH WIND       PRES   REMARKS
PUNTA GORDA    MOCLDY    81  76  84 S7        29.98S                  
FT MYERS       FAIR      80  78  94 SE3       29.96F                  
SOUTHWEST INTL FAIR      80  78  94 SE3       29.97F                  
NAPLES         FAIR      82  81  96 SE6       29.97F HX  95           
MARCO ISLAND     N/A    N/A N/A N/A MISG        N/A                   
IMMOKALEE        N/A    N/A N/A N/A MISG        N/A                   
MARATHON       FAIR      85  74  69 VRB5      29.99F                  
KEY WEST NAS   FAIR      81  73  76 S5        29.99F                  
KEY WEST INTL  FAIR      86  71  60 CALM      29.99F                  

STATION/POSITION SKY/WX   TEMP    WIND        PRES    WAVE   SWELL
                          AIR SEA DIR/SP/G            HT/PER HT/PER
                          (F)     (DEG/KT/KT) (MB)    (FT/S) (FT/S)
NAPLES                     85 89              1014.9F
26.0N   85.6W              83 86  240/  8/ 10 1014.7
DRY TORTUGAS               83     130/  1/  2 1015.6F
SAND KEY                   84                 1015.6F
SOMBRERO KEY               85     150/  7/ 10 1014.9F
LONG KEY                   85 92  170/  6/  8 1015.3F

$$

SKY/WX - Weather  TMP - Temperature  DP - Dewpoint  RH - Relative Humidity
WIND - Wind Direction/Speed PRES - Barometric Pressure